TimeCST,TemperatureF,Dew PointF,Humidity,Sea Level PressureIn,VisibilityMPH,Wind Direction,Wind SpeedMPH,Gust SpeedMPH,PrecipitationIn,Events,Conditions,WindDirDegrees,DateUTC
12:20 AM,59.0,57.2,94,29.97,0.8,Calm,Calm,-,N/A,,Mist,0,2012-12-09 06:20:00
12:29 AM,59.0,57.2,94,29.97,1.0,Calm,Calm,-,N/A,,Mist,0,2012-12-09 06:29:00
12:38 AM,59.0,57.2,94,29.97,2.0,Calm,Calm,-,N/A,,Partly Cloudy,0,2012-12-09 06:38:00
12:49 AM,57.2,57.2,100,29.97,1.0,SE,3.5,-,N/A,,Clear,140,2012-12-09 06:49:00
12:56 AM,57.9,55.9,93,30.00,0.8,SE,3.5,-,N/A,,Clear,130,2012-12-09 06:56:00
1:00 AM,57.2,57.2,100,29.97,1.2,SE,4.6,-,N/A,,Clear,140,2012-12-09 07:00:00
1:03 AM,57.2,57.2,100,29.97,3.0,SE,4.6,-,N/A,,Clear,140,2012-12-09 07:03:00
1:56 AM,57.9,57.0,97,30.00,5.0,Calm,Calm,-,N/A,,Clear,0,2012-12-09 07:56:00
2:11 AM,57.2,55.4,94,29.97,2.0,Calm,Calm,-,0.01,,Clear,0,2012-12-09 08:11:00
2:22 AM,57.2,55.4,94,29.97,3.0,SE,4.6,-,0.01,,Clear,140,2012-12-09 08:22:00
2:56 AM,57.9,55.9,93,30.00,5.0,SSE,3.5,-,0.01,,Scattered Clouds,160,2012-12-09 08:56:00
3:56 AM,57.0,55.9,96,30.01,3.0,SSE,3.5,-,N/A,,Mostly Cloudy,160,2012-12-09 09:56:00
4:21 AM,57.2,55.4,94,29.99,4.0,South,4.6,-,N/A,,Scattered Clouds,170,2012-12-09 10:21:00
4:26 AM,57.2,55.4,94,29.99,4.0,SSE,3.5,-,N/A,,Mostly Cloudy,160,2012-12-09 10:26:00
4:56 AM,57.9,57.0,97,30.02,4.0,Calm,Calm,-,N/A,,Overcast,0,2012-12-09 10:56:00
5:56 AM,57.9,57.0,97,30.04,4.0,South,4.6,-,N/A,,Overcast,180,2012-12-09 11:56:00
6:18 AM,57.2,57.2,100,30.02,2.5,South,4.6,-,N/A,,Overcast,190,2012-12-09 12:18:00
6:47 AM,57.2,57.2,100,30.02,3.0,South,4.6,-,N/A,,Overcast,190,2012-12-09 12:47:00
6:56 AM,57.9,57.0,97,30.06,4.0,South,3.5,-,N/A,,Overcast,180,2012-12-09 12:56:00
7:24 AM,59.0,57.2,94,30.03,3.0,South,5.8,-,N/A,,Overcast,180,2012-12-09 13:24:00
7:39 AM,59.0,57.2,94,30.03,2.5,South,3.5,-,N/A,,Overcast,190,2012-12-09 13:39:00
7:56 AM,59.0,57.9,96,30.07,3.0,South,6.9,-,N/A,,Overcast,180,2012-12-09 13:56:00
8:16 AM,60.8,57.2,88,30.04,3.0,South,6.9,-,N/A,,Overcast,180,2012-12-09 14:16:00
8:56 AM,62.1,59.0,90,30.07,5.0,Variable,4.6,-,N/A,,Overcast,0,2012-12-09 14:56:00
9:53 AM,66.2,59.0,78,30.04,10.0,South,8.1,-,N/A,,Scattered Clouds,180,2012-12-09 15:53:00
9:56 AM,66.9,59.0,76,30.06,10.0,South,6.9,-,N/A,,Scattered Clouds,190,2012-12-09 15:56:00
10:56 AM,72.0,57.9,61,30.04,10.0,South,6.9,-,N/A,,Partly Cloudy,190,2012-12-09 16:56:00
11:56 AM,73.9,53.1,48,30.01,10.0,SSW,10.4,-,N/A,,Scattered Clouds,200,2012-12-09 17:56:00
12:56 PM,73.9,55.9,53,29.98,10.0,SSW,10.4,-,N/A,,Mostly Cloudy,200,2012-12-09 18:56:00
1:56 PM,73.9,60.1,62,29.98,10.0,SW,10.4,-,N/A,,Overcast,220,2012-12-09 19:56:00
2:05 PM,73.4,60.8,65,29.94,10.0,South,5.8,-,N/A,,Mostly Cloudy,180,2012-12-09 20:05:00
2:56 PM,73.0,61.0,66,29.96,10.0,South,8.1,-,N/A,,Mostly Cloudy,180,2012-12-09 20:56:00
3:56 PM,72.0,62.1,71,29.96,10.0,SSE,4.6,-,N/A,,Mostly Cloudy,160,2012-12-09 21:56:00
4:56 PM,70.0,63.0,78,29.95,10.0,SE,3.5,-,N/A,,Scattered Clouds,140,2012-12-09 22:56:00
5:56 PM,68.0,63.0,84,29.94,10.0,SE,4.6,-,N/A,,Mostly Cloudy,140,2012-12-09 23:56:00
6:56 PM,68.0,63.0,84,29.95,10.0,SSE,5.8,-,N/A,,Mostly Cloudy,150,2012-12-10 00:56:00
7:56 PM,68.0,64.0,87,29.93,10.0,South,4.6,-,N/A,,Mostly Cloudy,170,2012-12-10 01:56:00
8:19 PM,69.8,64.4,83,29.89,10.0,SSE,6.9,-,N/A,,Mostly Cloudy,150,2012-12-10 02:19:00
8:56 PM,70.0,64.9,84,29.92,10.0,Variable,6.9,-,N/A,,Overcast,0,2012-12-10 02:56:00
9:56 PM,70.0,64.9,84,29.91,10.0,South,6.9,18.4,N/A,,Overcast,180,2012-12-10 03:56:00
10:56 PM,70.0,64.9,84,29.91,10.0,South,8.1,-,N/A,,Overcast,170,2012-12-10 04:56:00
11:44 PM,69.8,64.4,83,29.88,9.0,South,5.8,-,N/A,,Overcast,190,2012-12-10 05:44:00
11:56 PM,70.0,64.9,84,29.91,9.0,South,8.1,-,N/A,,Overcast,190,2012-12-10 05:56:00